FLOCK 3K-12 (43903 NORAD) Tracking and Keplerian Element Data

This shows tracking and keplerian element data for the satellite.

Feedback or suggestion? Click here.




ElementValue
Catalog43903
NameFLOCK 3K-12
Epoch Orbit17354
Epoch Day37.69928693
Epoch Year2022
RAAN291.727
Inclination97.2115
Eccentricity0.0018034
Argument of Perigee167.618
Mean Anonmoly192.5509
Mean Motion15.32229498
Decay Rate0.00019852
L11 43903U 18111AD 22037.69928693 .00019852 00000+0 63628-3 0 9999
L22 43903 97.2115 291.7270 0018034 167.6180 192.5509 15.32229498173545



Live tracking and technical data element details for FLOCK 3K-12 (NORAD 43903). FLOCK 3K-12 can be tracked NOW for your location showing map with azimuth and elevation plus other details from your city location.







IsCatalogInMostPopularTable: catalog: 43903, numindb: 431
Update: records affected: 1



GetName: 43903 FLOCK 3K-12

Hit Count: updated at: Thu, 15 May 2025 09:07:34 GMT